New Philadelphia, OH

1:39 AM EDT on May 01, 2017 (GMT -0400)
Clever

Weather History for KPHD - February, 2014

Change the Weather History Date:

Saturday, February 1, 2014

  Actual Average Record
Temperature  
Mean Temperature 40 °F 30 °F  
Max Temperature 51 °F 39 °F 68 °F (2002)
Min Temperature 29 °F 21 °F -7 °F (2004)
Degree Days  
Heating Degree Days 25 35  
Month to date heating degree days 25 35  
Since 1 July heating degree days 3510 3307  
Cooling Degree Days 0 0  
Month to date cooling degree days 0 0  
Year to date cooling degree days 0 0  
Moisture  
Dew Point 25 °F    
Average Humidity 61    
Maximum Humidity 85    
Minimum Humidity 36    
Precipitation  
Precipitation T in 0.07 in 1.28 in (1982)
Month to date precipitation T 0.07  
Year to date precipitation 1.82 2.67  
Sea Level Pressure  
Sea Level Pressure 30.02 in    
Wind  
Wind Speed 4 mph (SE)    
Max Wind Speed 12 mph    
Max Gust Speed 18 mph    
Visibility 10 miles    
Events Rain    
T = Trace of Precipitation, MM = Missing Value Source: NWS Daily Summary

Daily Weather History Graph

Daily Weather History Graph

Search for Another Location

Airport or City:

Trip Planner

Search our weather history database for the weather conditions in past years. The results will help you decide how hot, cold, wet, or windy it might be!

Date:

Astronomy

Feb. 01, 2014 Rise Set
Actual Time 7:35 AM EST 5:43 PM EST
Civil Twilight 7:06 AM EST 6:12 PM EST
Nautical Twilight 6:33 AM EST 6:45 PM EST
Astronomical Twilight 6:01 AM EST 7:17 PM EST
Moon 8:23 AM EST 8:18 PM EST
Length of Visible Light 11h 06m
Length of Day
10h 08m
Waxing Crescent, 5% of the Moon is Illuminated
Feb 1
Waxing Crescent
Feb 6
First Quarter
Feb 14
Full
Feb 22
Last Quarter
Mar 1
New

Hourly Weather History & Observations

Time (EST) Temp. Windchill Dew Point Humidity Pressure Visibility Wind Dir Wind Speed Gust Speed Precip Events Conditions
12:53 AM 30.0 °F - 27.0 °F 88% 30.16 in 6.0 mi Calm Calm - N/A   Overcast
2:53 AM 30.9 °F - 27.0 °F 85% 30.16 in 7.0 mi Calm Calm - N/A   Overcast
3:53 AM 30.9 °F 27.5 °F 27.0 °F 85% 30.16 in 9.0 mi SE 3.5 mph - N/A   Overcast
4:53 AM 33.1 °F 27.7 °F 25.0 °F 72% 30.15 in 10.0 mi SE 5.8 mph - N/A   Overcast
5:53 AM 33.1 °F 27.7 °F 24.1 °F 70% 30.14 in 10.0 mi SE 5.8 mph - N/A   Overcast
6:53 AM 34.0 °F 28.0 °F 24.1 °F 67% 30.13 in 10.0 mi SE 6.9 mph - N/A   Overcast
7:53 AM 35.1 °F 31.0 °F 23.0 °F 61% 30.12 in 10.0 mi SSE 4.6 mph - N/A   Overcast
8:46 AM 36.0 °F 30.3 °F 21.0 °F 55% 30.08 in 10.0 mi SE 6.9 mph - N/A   Overcast
8:53 AM 36.0 °F 31.1 °F 21.0 °F 55% 30.11 in 10.0 mi SE 5.8 mph - N/A   Overcast
9:11 AM 36.0 °F 30.3 °F 21.0 °F 55% 30.07 in 10.0 mi SE 6.9 mph - N/A   Overcast
9:53 AM 37.0 °F 32.4 °F 21.9 °F 54% 30.05 in 10.0 mi SE 5.8 mph - 0.00 in Rain Light Rain
10:53 AM 37.9 °F 34.4 °F 24.1 °F 57% 30.06 in 10.0 mi SE 4.6 mph - 0.00 in   Overcast
11:04 AM 37.9 °F 35.5 °F 24.1 °F 57% 30.03 in 10.0 mi SE 3.5 mph - N/A   Overcast
11:53 AM 39.0 °F - 24.1 °F 55% 30.03 in 10.0 mi Calm Calm - N/A   Overcast
12:53 PM 42.1 °F - 26.1 °F 53% 29.99 in 10.0 mi Calm Calm - N/A   Overcast
1:53 PM 45.0 °F 41.2 °F 28.0 °F 52% 29.94 in 10.0 mi SSE 6.9 mph - N/A   Overcast
2:53 PM 48.9 °F - 27.0 °F 43% 29.91 in 10.0 mi South 10.4 mph - N/A   Clear
3:53 PM 50.0 °F - 26.1 °F 39% 29.90 in 10.0 mi South 8.1 mph - N/A   Mostly Cloudy
4:53 PM 50.0 °F - 25.0 °F 38% 29.89 in 10.0 mi SSE 6.9 mph - N/A   Overcast
5:53 PM 48.9 °F - 26.1 °F 41% 29.89 in 10.0 mi Calm Calm - N/A   Overcast
6:53 PM 45.0 °F 43.5 °F 27.0 °F 49% 29.88 in 10.0 mi SSE 3.5 mph - N/A   Overcast
7:53 PM 46.9 °F - 26.1 °F 44% 29.88 in 10.0 mi Calm Calm - N/A   Overcast
8:53 PM 44.1 °F 42.5 °F 27.0 °F 51% 29.91 in 10.0 mi NW 3.5 mph - N/A   Overcast
9:53 PM 42.1 °F 40.2 °F 27.0 °F 55% 29.91 in 10.0 mi WNW 3.5 mph - N/A   Overcast
10:53 PM 41.0 °F - 28.9 °F 62% 29.92 in 10.0 mi Calm Calm - N/A   Overcast
11:53 PM 43.0 °F - 30.9 °F 62% 29.92 in 10.0 mi Calm Calm - N/A   Overcast